Location: Valdosta
(30.8330°N, 83.2790°W)
Time: 23:31:22
(UTC-05:00)

Amateur Radio Satellites - All Passes

Search period start: 21 February 2017 23:01
Search period end: 22 February 2017 23:01
Location: Valdosta, 30.8330°N, 83.2790°W

Satellite Date Start Highest point End Downlink Frequencies (MHz)
Time Altitude Azimuth
SPROUT 21 Feb 23:03:43 23:04:26 10° 67° (ENE) 23:05:11 437.525
ESTCUBE 1 21 Feb 23:13:52 23:18:22 70° 76° (ENE) 23:22:52 437.505/2401.250
SO-50 21 Feb 23:14:51 23:19:34 86° 299° (WNW) 23:24:14 436.795
PRISM 21 Feb 23:20:12 23:20:22 10° 293° (WNW) 23:20:33 437.425
AIST 2D 21 Feb 23:26:31 23:29:47 34° 98° (E) 23:33:01 435.315
UNISAT 6 21 Feb 23:49:08 23:51:54 16° 292° (WNW) 23:54:38 437.425
TIGRISAT 21 Feb 23:50:38 23:53:30 16° 292° (WNW) 23:56:20 435.000
DUCHIFAT 1 21 Feb 23:55:24 23:59:23 38° 99° (E) 00:03:20 145.980
FO-29 21 Feb 23:55:35 00:02:58 53° 289° (WNW) 00:09:40 435.910
VELOX 1 21 Feb 23:57:05 00:01:25 68° 76° (ENE) 00:05:47 145.980
EO-79 22 Feb 00:01:12 00:05:25 57° 101° (E) 00:09:37 145.935-145.965
DX 1 22 Feb 00:02:41 00:06:29 31° 72° (ENE) 00:10:18 434.975-435.025
JUGNU 22 Feb 00:07:47 00:12:41 27° 176° (S) 00:17:38 437.505
O/OREOS (USA 219) 22 Feb 00:10:07 00:14:15 37° 292° (WNW) 00:18:26 437.305
YUBILEINY 22 Feb 00:15:18 00:21:22 21° 277° (W) 00:27:26 435.215
POLYITAN 1 22 Feb 00:17:21 00:21:40 87° 280° (W) 00:25:57 437.675
QB50P2 22 Feb 00:20:10 00:24:26 74° 284° (WNW) 00:28:42 145.880/145.840
NANOSAT C BR1 22 Feb 00:20:45 00:25:02 87° 279° (W) 00:29:17 145.865
UKube-1 22 Feb 00:22:46 00:26:44 37° 73° (ENE) 00:30:42 .
50 SAT 22 Feb 00:25:04 00:28:35 70° 259° (W) 00:32:05 437.505
SPROUT 22 Feb 00:35:46 00:39:51 49° 260° (W) 00:43:59 437.525
SRMSAT 22 Feb 00:59:53 01:04:08 20° 167° (SSE) 01:08:23 437.500
RS-15 22 Feb 01:08:02 01:14:51 16° 30° (NNE) 01:21:32 29.354- 29.394
BUGSAT 1 22 Feb 01:08:41 01:12:56 80° 282° (WNW) 01:17:10 437.445
DUCHIFAT 1 22 Feb 01:32:35 01:34:40 13° 292° (WNW) 01:36:45 145.980
DX 1 22 Feb 01:39:57 01:42:40 16° 265° (W) 01:45:23 434.975-435.025
JUGNU 22 Feb 01:56:22 02:01:12 26° 186° (S) 02:06:05 437.505
UKube-1 22 Feb 02:00:47 02:02:50 13° 265° (W) 02:04:54 .
ITUPSAT 1 22 Feb 02:03:41 02:07:52 31° 72° (ENE) 02:12:06 437.325
Oscar 19 22 Feb 02:08:55 02:14:02 79° 284° (WNW) 02:19:08 437.125/150
BEESAT 22 Feb 02:12:41 02:17:08 40° 73° (ENE) 02:21:36 436.000
Gurwin Techsat 1B 22 Feb 02:22:08 02:27:27 73° 102° (ESE) 02:32:45 435.225
ITAMSAT 1 22 Feb 02:36:02 02:38:44 14° 94° (E) 02:41:25 435.822/435.867
SRMSAT 22 Feb 02:47:45 02:52:47 28° 177° (S) 02:57:50 437.500
PCSat 22 Feb 02:48:55 02:54:16 57° 63° (ENE) 02:59:34 145.827
AO-7 22 Feb 03:04:26 03:11:09 27° 98° (E) 03:17:48 .
MOZHAYETS 4 22 Feb 03:08:07 03:12:36 53° 75° (ENE) 03:17:08
RS-15 22 Feb 03:18:45 03:30:49 58° 57° (ENE) 03:42:17 29.354- 29.394
ITUPSAT 1 22 Feb 03:42:08 03:45:40 20° 264° (W) 03:49:13 437.325
JUGNU 22 Feb 03:46:04 03:49:41 17° 195° (SSW) 03:53:19 437.505
BEESAT 22 Feb 03:52:11 03:54:59 16° 265° (W) 03:57:49 436.000
CUBESAT XI-V 22 Feb 03:57:48 04:01:38 26° 71° (ENE) 04:05:28 437.345
Gurwin Techsat 1B 22 Feb 04:05:20 04:06:42 11° 296° (WNW) 04:08:04 435.225
KKS-1 22 Feb 04:07:18 04:11:39 61° 75° (ENE) 04:16:01 437.445
ITAMSAT 1 22 Feb 04:13:20 04:18:24 52° 287° (WNW) 04:23:27 435.822/435.867
PCSat 22 Feb 04:34:25 04:37:05 14° 256° (WSW) 04:39:44 145.827
SRMSAT 22 Feb 04:36:35 04:41:29 26° 187° (S) 04:46:22 437.500
MOZHAYETS 4 22 Feb 04:48:50 04:49:59 11° 267° (W) 04:51:08
STARS 22 Feb 04:52:06 04:56:26 87° 81° (E) 05:00:50 437.465
AO-7 22 Feb 04:56:05 05:04:05 54° 292° (WNW) 05:12:04 .
AO-85 22 Feb 04:57:35 05:02:17 63° 116° (ESE) 05:06:39 145.980
M-CUBED/EXP-1 PRIME 22 Feb 05:01:55 05:05:20 76° 254° (WSW) 05:08:37 437.505
RS-15 22 Feb 05:32:12 05:42:35 35° 256° (WSW) 05:52:35 29.354- 29.394
CUBESAT XI-V 22 Feb 05:35:09 05:38:53 23° 264° (W) 05:42:36 437.345
DOVE 4 22 Feb 05:45:31 05:49:03 21° 96° (E) 05:52:43 437.250
NUDT-PHONESAT 22 Feb 05:46:22 05:47:04 10° 93° (E) 05:47:47 437.300
STRAND 1 22 Feb 06:06:57 06:10:02 16° 67° (ENE) 06:13:08 437.568
SRMSAT 22 Feb 06:26:35 06:30:06 16° 196° (SSW) 06:33:37 437.500
CUTE-I 22 Feb 06:33:19 06:38:35 54° 101° (E) 06:43:49 437.470
XW-2F 22 Feb 06:36:17 06:40:05 71° 100° (E) 06:43:51 145.980 - 146.000
KAITUO 1B 22 Feb 06:37:53 06:41:37 60° 100° (E) 06:45:18 145.475/437.950
XW-2D 22 Feb 06:38:35 06:42:25 83° 101° (E) 06:46:12 145.860 - 145.880
AO-85 22 Feb 06:41:33 06:42:57 11° 308° (NW) 06:44:20 145.980
XW-2B 22 Feb 06:43:32 06:47:22 87° 288° (WNW) 06:51:09 145.730 - 145.750
BEESAT 3 22 Feb 06:45:08 06:48:47 41° 113° (ESE) 06:52:29 437.485
XW-2C 22 Feb 06:52:03 06:55:51 64° 283° (WNW) 06:59:35 145.795 - 145.815
LilacSat-2 22 Feb 07:05:02 07:08:38 39° 285° (WNW) 07:12:13 437.200
BEESAT 2 22 Feb 07:15:13 07:18:47 35° 112° (ESE) 07:22:24 435.950
NUDT-PHONESAT 22 Feb 07:17:40 07:21:05 34° 286° (WNW) 07:24:29 437.300
SEEDS 22 Feb 07:20:36 07:22:24 13° 94° (E) 07:24:12 437.485
DOVE 4 22 Feb 07:22:31 07:26:39 31° 287° (WNW) 07:31:00 437.250
CUBEBUG 2 22 Feb 07:31:26 07:33:39 13° 93° (E) 07:35:50 437.445
HO-68 22 Feb 07:33:36 07:40:13 40° 100° (E) 07:46:49 435.675
STRAND 1 22 Feb 07:43:52 07:48:45 46° 260° (W) 07:53:42 437.568
CUTE 1.7 + AOD 2 22 Feb 07:49:48 07:53:55 50° 100° (E) 07:57:59 437.475
SO-50 22 Feb 07:52:22 07:55:35 19° 53° (NE) 07:58:47 436.795
XW-2A 22 Feb 07:55:22 07:58:49 69° 282° (WNW) 08:02:14 145.665 - 145.685
Tancredo 1 22 Feb 07:55:51 07:58:11 18° 127° (SE) 08:00:30 437.200
CUTE-I 22 Feb 08:15:06 08:18:06 15° 294° (WNW) 08:21:06 437.470
UWE-3 22 Feb 08:15:13 08:19:06 26° 96° (E) 08:22:54 435.000/436.395/437.385
BEESAT 3 22 Feb 08:24:52 08:26:34 12° 308° (NW) 08:28:16 437.485
PRISM 22 Feb 08:26:44 08:29:17 16° 70° (ENE) 08:31:50 437.425
ZACube-1 22 Feb 08:44:27 08:48:30 31° 97° (E) 08:52:28 437.345
O/OREOS (USA 219) 22 Feb 08:48:03 08:49:59 12° 61° (ENE) 08:51:55 437.305
AAUSAT CUBESAT 2 22 Feb 08:54:14 08:58:21 84° 282° (WNW) 09:02:27 437.432
SEEDS 22 Feb 08:54:21 08:58:10 36° 286° (WNW) 09:01:58 437.485
BEESAT 2 22 Feb 08:54:23 08:56:39 15° 307° (NW) 08:58:55 435.950
ISS 22 Feb 08:56:44 09:00:00 73° 315° (NW) 09:03:18 437.550
UNISAT 6 22 Feb 09:05:29 09:08:31 18° 69° (ENE) 09:11:37 437.425
CUBEBUG 2 22 Feb 09:05:50 09:10:25 47° 285° (WNW) 09:14:55 437.445
TIGRISAT 22 Feb 09:07:02 09:09:59 18° 69° (ENE) 09:12:57 435.000
YUBILEINY 22 Feb 09:20:44 09:23:33 12° 79° (E) 09:26:22 435.215
HO-68 22 Feb 09:21:36 09:27:41 31° 294° (WNW) 09:33:46 435.675
DELFI C3 22 Feb 09:25:07 09:27:55 19° 96° (E) 09:30:43 145.870
Tancredo 1 22 Feb 09:31:29 09:34:18 27° 320° (NW) 09:37:08 437.200
SO-50 22 Feb 09:32:03 09:36:05 34° 248° (WSW) 09:40:07 436.795
AO-73 22 Feb 09:34:43 09:39:14 69° 284° (WNW) 09:43:40 145.935
Oscar 11 22 Feb 09:46:09 09:50:23 56° 284° (WNW) 09:54:35 .
UWE-3 22 Feb 09:51:40 09:55:22 24° 289° (WNW) 09:59:00 435.000/436.395/437.385
FO-29 22 Feb 10:00:13 10:06:30 42° 69° (ENE) 10:13:27 435.910
PRISM 22 Feb 10:00:45 10:04:19 28° 262° (W) 10:07:51 437.425
ZACube-1 22 Feb 10:21:21 10:24:29 18° 290° (WNW) 10:27:34 437.345
O/OREOS (USA 219) 22 Feb 10:25:12 10:29:37 49° 255° (WSW) 10:34:02 437.305
UNISAT 6 22 Feb 10:41:03 10:44:56 30° 263° (W) 10:48:56 437.425
TIGRISAT 22 Feb 10:42:26 10:46:21 32° 263° (W) 10:50:23 435.000
DUCHIFAT 1 22 Feb 10:43:18 10:45:32 14° 69° (ENE) 10:47:46 145.980
EO-79 22 Feb 10:48:55 10:52:03 21° 71° (ENE) 10:55:11 145.935-145.965
DELFI C3 22 Feb 10:59:35 11:02:36 22° 288° (WNW) 11:05:36 145.870
POLYITAN 1 22 Feb 11:04:34 11:08:20 32° 72° (ENE) 11:12:07 437.675
QB50P2 22 Feb 11:07:14 11:11:07 38° 74° (ENE) 11:15:03 145.880/145.840
NANOSAT C BR1 22 Feb 11:07:30 11:11:12 31° 73° (ENE) 11:14:57 145.865
YUBILEINY 22 Feb 11:10:07 11:18:57 85° 94° (E) 11:27:48 435.215
ESTCUBE 1 22 Feb 11:12:30 11:15:59 22° 96° (E) 11:19:28 437.505/2401.250
AIST 2D 22 Feb 11:28:08 11:31:37 61° 260° (W) 11:35:09 435.315
FO-29 22 Feb 11:45:52 11:51:33 29° 266° (W) 11:57:49 435.910
BUGSAT 1 22 Feb 11:53:11 11:56:44 31° 73° (ENE) 12:00:20 437.445
VELOX 1 22 Feb 11:53:19 11:56:32 20° 96° (E) 11:59:44 145.980
50 SAT 22 Feb 11:57:31 11:58:26 11° 94° (E) 11:59:22 437.505
DUCHIFAT 1 22 Feb 12:17:02 12:20:51 34° 262° (W) 12:24:42 145.980
EO-79 22 Feb 12:24:14 12:27:37 24° 263° (W) 12:31:02 145.935-145.965
SPROUT 22 Feb 12:26:47 12:30:51 40° 99° (E) 12:34:53 437.525
POLYITAN 1 22 Feb 12:41:44 12:44:08 15° 265° (W) 12:46:34 437.675
NANOSAT C BR1 22 Feb 12:44:31 12:46:56 15° 265° (W) 12:49:22 145.865
QB50P2 22 Feb 12:45:10 12:47:00 13° 266° (W) 12:48:51 145.880/145.840
ESTCUBE 1 22 Feb 12:49:02 12:52:40 25° 289° (WNW) 12:56:17 437.505/2401.250
YUBILEINY 22 Feb 13:11:55 13:16:40 15° 291° (WNW) 13:21:26 435.215
Oscar 19 22 Feb 13:20:04 13:25:14 86° 77° (ENE) 13:30:24 437.125/150
50 SAT 22 Feb 13:28:37 13:31:35 27° 286° (WNW) 13:34:32 437.505
VELOX 1 22 Feb 13:29:11 13:32:54 27° 288° (WNW) 13:36:37 145.980
BUGSAT 1 22 Feb 13:30:02 13:32:07 14° 265° (W) 13:34:15 437.445
DX 1 22 Feb 13:31:34 13:35:52 62° 284° (WNW) 13:40:09 434.975-435.025
AO-85 22 Feb 13:37:04 13:37:33 10° 51° (NE) 13:38:01 145.980
Gurwin Techsat 1B 22 Feb 13:37:39 13:42:54 68° 75° (ENE) 13:48:11 435.225
ITAMSAT 1 22 Feb 13:49:27 13:51:50 13° 65° (ENE) 13:54:14 435.822/435.867
UKube-1 22 Feb 13:50:39 13:54:50 52° 285° (WNW) 13:59:01 .
AO-7 22 Feb 13:58:16 14:04:32 24° 60° (ENE) 14:10:48 .
SPROUT 22 Feb 14:04:20 14:06:21 13° 292° (WNW) 14:08:22 437.525
ITUPSAT 1 22 Feb 14:11:26 14:13:19 12° 94° (E) 14:15:12 437.325
BEESAT 22 Feb 14:19:23 14:22:19 16° 95° (E) 14:25:12 436.000
MOZHAYETS 4 22 Feb 15:09:32 15:12:48 19° 95° (E) 15:16:01
AO-85 22 Feb 15:14:21 15:18:09 50° 245° (WSW) 15:22:04 145.980
Gurwin Techsat 1B 22 Feb 15:22:06 15:23:11 11° 268° (W) 15:24:17 435.225
ITAMSAT 1 22 Feb 15:25:38 15:30:44 59° 259° (W) 15:35:53 435.822/435.867
ISS 22 Feb 15:30:39 15:31:30 11° 32° (NNE) 15:32:21 437.550
PCSat 22 Feb 15:44:05 15:47:16 16° 104° (ESE) 15:50:27 145.827
ITUPSAT 1 22 Feb 15:46:43 15:51:21 50° 286° (WNW) 15:55:57 437.325
AO-7 22 Feb 15:48:20 15:56:36 64° 256° (WSW) 16:04:54 .
BEESAT 22 Feb 15:55:43 16:00:09 39° 288° (WNW) 16:04:34 436.000
Tancredo 1 22 Feb 16:02:47 16:05:18 21° 38° (NE) 16:07:49 437.200
KKS-1 22 Feb 16:04:34 16:07:40 18° 96° (E) 16:10:43 437.445
BEESAT 3 22 Feb 16:44:03 16:48:02 69° 61° (ENE) 16:52:00 437.485
MOZHAYETS 4 22 Feb 16:45:54 16:49:55 30° 288° (WNW) 16:53:53
M-CUBED/EXP-1 PRIME 22 Feb 16:47:13 16:47:59 10° 100° (E) 16:48:45 437.505
STARS 22 Feb 16:47:22 16:50:57 24° 97° (E) 16:54:32 437.465
ISS 22 Feb 17:05:02 17:08:18 71° 226° (SW) 17:11:31 437.550
XW-2F 22 Feb 17:13:06 17:15:24 15° 70° (ENE) 17:17:42 145.980 - 146.000
KAITUO 1B 22 Feb 17:14:20 17:16:08 13° 70° (ENE) 17:17:55 145.475/437.950
BEESAT 2 22 Feb 17:15:04 17:19:04 59° 61° (ENE) 17:23:01 435.950
XW-2D 22 Feb 17:15:24 17:18:00 18° 71° (ENE) 17:20:37 145.860 - 145.880
XW-2B 22 Feb 17:20:09 17:22:57 20° 72° (ENE) 17:25:46 145.730 - 145.750
PCSat 22 Feb 17:24:56 17:30:10 50° 298° (WNW) 17:35:26 145.827
XW-2C 22 Feb 17:28:12 17:31:23 25° 73° (ENE) 17:34:36 145.795 - 145.815
RS-15 22 Feb 17:33:30 17:44:57 63° 111° (ESE) 17:56:57 29.354- 29.394
CUBESAT XI-V 22 Feb 17:36:03 17:40:35 61° 284° (WNW) 17:45:05 437.345
Tancredo 1 22 Feb 17:38:54 17:41:32 23° 232° (SW) 17:44:08 437.200
KKS-1 22 Feb 17:40:16 17:44:11 30° 288° (WNW) 17:48:04 437.445
LilacSat-2 22 Feb 17:41:05 17:44:42 40° 75° (ENE) 17:48:21 437.200
CUTE-I 22 Feb 17:49:40 17:54:48 52° 73° (ENE) 17:59:57 437.470
NUDT-PHONESAT 22 Feb 17:51:16 17:54:48 41° 75° (ENE) 17:58:21 437.300
HO-68 22 Feb 17:58:38 18:02:56 17° 61° (ENE) 18:07:14 435.675
M-CUBED/EXP-1 PRIME 22 Feb 18:18:50 18:22:26 42° 289° (WNW) 18:26:17 437.505
DOVE 4 22 Feb 18:22:36 18:26:41 53° 260° (W) 18:30:44 437.250
XW-2A 22 Feb 18:22:50 18:24:45 15° 71° (ENE) 18:26:40 145.665 - 145.685
STARS 22 Feb 18:23:40 18:27:08 23° 289° (WNW) 18:30:35 437.465
CUTE 1.7 + AOD 2 22 Feb 18:37:51 18:40:49 18° 71° (ENE) 18:43:46 437.475
XW-2F 22 Feb 18:46:05 18:49:17 25° 263° (W) 18:52:31 145.980 - 146.000
KAITUO 1B 22 Feb 18:46:28 18:49:49 30° 262° (W) 18:53:12 145.475/437.950
XW-2D 22 Feb 18:48:58 18:52:00 22° 264° (W) 18:55:03 145.860 - 145.880
XW-2B 22 Feb 18:54:08 18:56:59 20° 264° (W) 18:59:51 145.730 - 145.750
XW-2C 22 Feb 19:03:15 19:05:32 15° 265° (W) 19:07:50 145.795 - 145.815
UWE-3 22 Feb 19:09:28 19:10:20 11° 66° (ENE) 19:11:14 435.000/436.395/437.385
CUTE-I 22 Feb 19:32:11 19:35:03 15° 266° (W) 19:37:56 437.470
ZACube-1 22 Feb 19:36:27 19:38:28 13° 68° (ENE) 19:40:30 437.345
AAUSAT CUBESAT 2 22 Feb 19:39:01 19:42:38 29° 73° (ENE) 19:46:15 437.432
SEEDS 22 Feb 19:39:43 19:43:56 70° 77° (ENE) 19:48:10 437.485
HO-68 22 Feb 19:42:41 19:49:52 74° 256° (WSW) 19:57:03 435.675
RS-15 22 Feb 19:47:27 19:58:03 36° 311° (NW) 20:09:05 29.354- 29.394
XW-2A 22 Feb 19:54:47 19:57:18 20° 264° (W) 19:59:50 145.665 - 145.685
CUBEBUG 2 22 Feb 19:57:55 20:02:13 73° 76° (ENE) 20:06:40 437.445
STRAND 1 22 Feb 19:59:37 20:04:48 87° 284° (WNW) 20:09:56 437.568
CUTE 1.7 + AOD 2 22 Feb 20:12:44 20:16:24 27° 263° (W) 20:20:04 437.475
AO-73 22 Feb 20:24:19 20:28:28 44° 74° (ENE) 20:32:44 145.935
Oscar 11 22 Feb 20:35:00 20:39:12 52° 76° (ENE) 20:43:27 .
UWE-3 22 Feb 20:41:58 20:46:13 53° 261° (W) 20:50:37 435.000/436.395/437.385
ZACube-1 22 Feb 21:10:07 21:14:16 43° 262° (W) 21:18:32 437.345
AAUSAT CUBESAT 2 22 Feb 21:15:31 21:18:04 16° 265° (W) 21:20:37 437.432
YUBILEINY 22 Feb 21:28:01 21:35:36 32° 76° (ENE) 21:43:04 435.215
DELFI C3 22 Feb 21:38:26 21:42:24 86° 254° (WSW) 21:46:23 145.870
PRISM 22 Feb 21:46:46 21:50:45 54° 100° (E) 21:54:44 437.425
SO-50 22 Feb 22:01:12 22:04:46 21° 110° (ESE) 22:08:17 436.795
AO-73 22 Feb 22:03:16 22:04:53 12° 268° (W) 22:06:30 145.935
JUGNU 22 Feb 22:04:56 22:09:07 20° 167° (SSE) 22:13:18 437.505
ESTCUBE 1 22 Feb 22:08:50 22:10:11 11° 67° (ENE) 22:11:32 437.505/2401.250
RS-15 22 Feb 22:14:00 22:16:04 10° 343° (NNW) 22:18:10 29.354- 29.394
UNISAT 6 22 Feb 22:37:21 22:42:05 85° 103° (ESE) 22:46:43 437.425
TIGRISAT 22 Feb 22:38:36 22:43:19 81° 101° (E) 22:47:57 435.000
O/OREOS (USA 219) 22 Feb 22:53:00 22:57:03 35° 104° (ESE) 23:01:08 437.305
